DW6873 Weather Reports


Display with metric or nautical units.
time (UTC)temp
F
wind
direction
speed
MPH
gust
MPH
rain 1hr
in
rain 24hr
in
rain mn
in
humidity
%
barometer
mb
20260902164515 75 103 0.0 0.0 0.00 0.00 0.00 53 1009.9
20260902163005 75 182 0.0 0.0 0.00 0.00 0.00 57 1010.0
20260902161503 74 148 0.0 0.0 0.00 0.00 0.00 57 1010.0
20260902160030 73 149 0.0 1.0 0.00 0.00 0.00 59 1010.0
20260902154529 73 141 0.0 0.0 0.00 0.00 0.00 62 1010.1
20260902153028 73 121 0.0 0.0 0.00 0.00 0.00 62 1010.1
20260902151522 72 132 0.0 0.0 0.00 0.00 0.00 64 1010.1
20260902150018 70 151 0.0 1.0 0.00 0.00 0.00 67 1010.2
20260902144530 69 145 0.0 0.0 0.00 0.00 0.00 71 1010.3
20260902143009 68 158 0.0 0.0 0.00 0.00 0.00 71 1010.6
20260902141505 67 122 0.0 0.0 0.00 0.00 0.00 73 1010.5
20260902140001 64 139 0.0 0.0 0.00 0.00 0.00 85 1010.5
20260902134606 61 345 0.0 0.0 0.00 0.00 0.00 85 1010.6
20260902133025 59 345 0.0 0.0 0.00 0.00 0.00 89 1010.7
20260902131540 57 10 0.0 0.0 0.00 0.00 0.00 92 1010.6
20260902130053 0 0.0 0.0 0.00 0.00 0.00 1010.6
20260902124548 0 0.0 0.0 0.00 0.00 0.00 1010.6
20260902123016 0 0.0 0.0 0.00 0.00 0.00 1010.5
20260902121509 0 0.0 0.0 0.00 0.00 0.00 1010.6
20260902120000 0 0.0 0.0 0.00 0.00 0.00 1010.5
20260902114604 0 0.0 0.0 0.00 0.00 0.00 1010.3
20260902113057 0 0.0 0.0 0.00 0.00 0.00 1010.2
20260902111547 0 0.0 0.0 0.00 0.00 0.00 1010.3
20260902110013 0 0.0 0.0 0.00 0.00 0.00 1010.3
20260902104515 0 0.0 0.0 0.00 0.00 0.00 1010.4
20260902103039 0 0.0 0.0 0.00 0.00 0.00 1010.6
20260902101532 47 98 0.0 0.0 0.00 0.00 0.00 94 1010.5
20260902100027 48 110 0.0 0.0 0.00 0.00 0.00 93 1010.7
20260902094529 49 110 0.0 0.0 0.00 0.00 0.00 95 1010.6
20260902093025 49 110 0.0 0.0 0.00 0.00 0.00 94 1010.7
20260902091554 50 110 0.0 0.0 0.00 0.00 0.00 94 1010.8
20260902090023 50 110 0.0 0.0 0.00 0.00 0.00 95 1010.9
20260902084522 50 110 0.0 0.0 0.00 0.00 0.00 95 1010.9
20260902083021 49 110 0.0 0.0 0.00 0.00 0.00 96 1011.0
20260902081619 48 110 0.0 0.0 0.00 0.00 0.00 94 1011.0
20260902080017 48 110 0.0 0.0 0.00 0.00 0.00 94 1010.9
20260902074516 49 110 0.0 0.0 0.00 0.00 0.00 93 1010.8
20260902073015 49 110 0.0 0.0 0.00 0.00 0.00 94 1010.8
20260902071536 49 110 0.0 0.0 0.00 0.00 0.00 93 1010.9
20260902070013 49 110 0.0 0.0 0.00 0.00 0.00 95 1010.8
20260902064510 48 110 0.0 0.0 0.00 0.00 0.00 93 1010.7
20260902063009 49 110 0.0 0.0 0.00 0.00 0.00 94 1010.7
20260902061509 49 110 0.0 0.0 0.00 0.00 0.00 90 1010.8
20260902060009 51 110 0.0 0.0 0.00 0.00 0.00 93 1010.8
20260902054542 51 110 0.0 0.0 0.00 0.00 0.00 93 1010.8
20260902053033 51 110 0.0 0.0 0.00 0.00 0.00 93 1010.7
20260902051501 51 110 0.0 0.0 0.00 0.00 0.00 93 1010.9
20260902050107 51 110 0.0 0.0 0.00 0.00 0.00 92 1010.8
20260902044556 52 110 0.0 0.0 0.00 0.00 0.00 90 1010.8
20260902043056 53 110 0.0 0.0 0.00 0.00 0.00 90 1010.8
20260902041549 54 110 0.0 0.0 0.00 0.00 0.00 87 1010.8
20260902040047 55 122 0.0 0.0 0.00 0.00 0.00 88 1010.9
20260902034543 55 267 0.0 0.0 0.00 0.00 0.00 89 1010.9
20260902033042 56 267 0.0 0.0 0.00 0.00 0.00 88 1010.8
20260902031540 56 206 0.0 0.0 0.00 0.00 0.00 88 1010.8
20260902030036 57 206 0.0 0.0 0.00 0.00 0.00 85 1010.9
20260902024504 57 205 0.0 0.0 0.00 0.00 0.00 83 1011.0
20260902023114 59 204 0.0 0.0 0.00 0.00 0.00 80 1010.9
20260902021530 60 200 0.0 0.0 0.00 0.00 0.00 79 1010.7
20260902020029 63 208 0.0 0.0 0.00 0.00 0.00 75 1010.6
20260902014533 65 208 0.0 0.0 0.00 0.00 0.00 72 1010.4
20260902013027 66 230 0.0 0.0 0.00 0.00 0.00 68 1010.5
20260902011527 68 153 0.0 0.0 0.00 0.00 0.00 65 1010.4
20260902010050 69 125 0.0 0.0 0.00 0.00 0.00 61 1010.5
20260902004522 71 145 0.0 0.0 0.00 0.00 0.00 59 1010.5
20260902003021 72 149 0.0 0.0 0.00 0.00 0.00 57 1010.6
20260902001520 74 181 0.0 0.0 0.00 0.00 0.00 54 1010.7
20260902000033 75 167 0.0 0.0 0.00 0.00 0.00 51 1010.7
20260901234516 76 165 0.0 0.0 0.00 0.00 0.00 49 1010.6
20260901233016 77 190 0.0 0.0 0.00 0.00 0.00 49 1010.7
20260901231516 78 192 0.0 0.0 0.00 0.00 0.00 46 1010.8
20260901230027 78 115 0.0 0.0 0.00 0.00 0.00 43 1010.7
20260901224546 78 135 0.0 0.0 0.00 0.00 0.00 44 1010.7
20260901223051 77 193 0.0 0.0 0.00 0.00 0.00 45 1010.7
20260901221515 77 199 0.0 0.0 0.00 0.00 0.00 43 1010.8
20260901220012 78 67 0.0 0.0 0.00 0.00 0.00 41 1011.0
20260901214513 78 23 0.0 0.0 0.00 0.00 0.00 44 1011.0
20260901213009 78 67 0.0 0.0 0.00 0.00 0.00 43 1011.1
20260901211518 78 1 0.0 0.0 0.00 0.00 0.00 41 1011.0
20260901210008 78 271 0.0 0.0 0.00 0.00 0.00 40 1011.2
20260901204538 78 260 0.0 0.0 0.00 0.00 0.00 46 1011.3
20260901203040 77 300 0.0 0.0 0.00 0.00 0.00 39 1011.4
20260901201534 77 266 0.0 0.0 0.00 0.00 0.00 47 1011.6
20260901200044 77 249 0.0 0.0 0.00 0.00 0.00 45 1011.7
20260901194550 77 244 0.0 0.0 0.00 0.00 0.00 40 1011.8
20260901193032 77 262 0.0 0.0 0.00 0.00 0.00 41 1012.0
20260901191533 77 221 0.0 0.0 0.00 0.00 0.00 41 1012.2
20260901190034 78 211 0.0 0.0 0.00 0.00 0.00 43 1012.3
20260901184529 78 311 0.0 0.0 0.00 0.00 0.00 42 1012.3
20260901183026 78 222 0.0 0.0 0.00 0.00 0.00 40 1012.3
20260901181528 77 156 0.0 0.0 0.00 0.00 0.00 42 1012.4
20260901180030 78 213 0.0 0.0 0.00 0.00 0.00 44 1012.7
20260901174520 77 213 0.0 0.0 0.00 0.00 0.00 44 1012.8
20260901173018 76 185 0.0 0.0 0.00 0.00 0.00 41 1012.9
20260901171517 76 130 0.0 0.0 0.00 0.00 0.00 43 1013.0
20260901170024 75 101 0.0 0.0 0.00 0.00 0.00 47 1013.0